Snowfall_Accumulation
3.4 3.4 5.1 3.4 2.4 2.2 1.4 0.8 0.0 0.7 0.7 0.0 0.0 0.3 0.7 0.0 0.0 0.7 1.5 0.0 0.0 1.4
3.3 3.3 3.5 4.7 4.0 1.6 2.1 2.8 0.1 1.1 1.2 1.0 0.0 0.0 0.5 0.7 0.0 0.0 1.0 1.3 0.0 0.0
2.8 3.3 3.0 2.8 5.2 4.5 3.5 2.0 3.6 3.7 1.3 1.6 1.0 0.0 0.5 0.4 0.5 0.0 1.0 1.1 0.0 0.0
0.7 2.1 2.5 3.0 4.2 5.1 4.5 3.3 3.9 4.1 4.7 1.5 1.7 0.0 0.7 0.4 0.4 0.5 0.9 0.9 1.2 0.0
4.9 3.3 2.1 2.1 2.6 3.4 4.1 4.4 4.9 4.9 5.0 4.7 2.2 1.8 2.2 1.0 0.7 0.5 0.8 1.1 1.4 0.9
10.6 10.1 7.1 3.3 1.0 3.5 3.1 4.0 5.1 6.8 6.4 5.4 2.9 3.3 1.3 1.4 1.0 0.9 0.3 0.0 1.2 1.3
11.1 11.3 11.6 9.0 7.2 6.5 5.4 4.0 4.2 6.5 5.4 6.0 6.2 3.6 3.3 1.7 1.7 1.5 0.5 0.0 0.0 0.9
10.4 10.7 9.4 10.7 8.8 8.5 8.7 9.0 8.7 8.6 7.2 5.9 6.0 3.5 4.8 4.9 3.6 3.2 2.2 0.6 0.9 1.1
11.1 9.6 10.1 10.9 11.4 9.5 8.6 9.2 9.3 12.2 8.3 9.7 6.2 3.7 2.7 2.0 6.1 5.0 4.7 2.6 2.5 1.8
13.1 12.0 11.8 11.7 10.8 9.3 9.7 8.3 7.7 11.0 12.3 13.0 8.6 3.8 1.9 1.7 4.4 8.0 7.4 4.8 4.1 2.5
11.1 11.2 10.4 11.2 10.9 10.4 9.5 10.6 10.6 10.5 10.4 13.6 12.0 5.3 4.9 5.2 11.8 10.4 8.4 4.8 3.7 2.5
9.7 9.8 10.0 10.8 11.7 12.9 13.4 14.7 15.3 15.3 16.4 16.2 15.2 5.5 6.5 11.6 16.8 15.1 7.9 5.2 2.6 2.3
9.1 10.8 13.9 12.4 12.3 15.7 15.3 16.0 15.6 16.9 15.3 10.3 14.7 6.5 4.6 11.3 20.7 24.8 15.8 6.0 4.9 1.3
7.3 10.1 11.6 13.0 13.2 14.8 16.8 16.1 14.6 13.8 11.3 11.7 12.3 12.1 6.2 7.1 17.7 22.4 23.2 16.5 9.9 5.5